Wetterdaten: Woche 16.11.15 - 22.11.15 (KW47)
Datum Zeit Temp. I. Temp. A. Feuchte I. Feuchte A. Luftdruck Regen Wind Richtung Sonnenschein UV Solar Taupunkt Windchill Windben
16.11.2015 00:00 23,3 C 10,2 C 55 % 88 % 1015,8 hPa 0,0 l/m 11,1 km/h (2 Bft) W 0,00 h 0,0 UV-I 0 W/m 8,3 C 7,3 C 17,7 km/h (3 Bft)
16.11.2015 01:00 23,2 C 10,2 C 55 % 87 % 1016,0 hPa 0,0 l/m 9,9 km/h (2 Bft) W 0,00 h 0,0 UV-I 0 W/m 8,1 C 8,0 C 15,9 km/h (3 Bft)
16.11.2015 02:00 23,2 C 10,1 C 55 % 86 % 1016,3 hPa 0,0 l/m 10,8 km/h (2 Bft) W-SW 0,00 h 0,0 UV-I 0 W/m 7,9 C 7,5 C 17,7 km/h (3 Bft)
16.11.2015 03:00 23,3 C 9,8 C 57 % 87 % 1016,3 hPa 0,0 l/m 3,4 km/h (1 Bft) W-SW 0,00 h 0,0 UV-I 0 W/m 7,8 C 9,4 C 7,5 km/h (2 Bft)
16.11.2015 04:00 23,3 C 9,7 C 57 % 86 % 1016,3 hPa 0,0 l/m 1,2 km/h (1 Bft) W-SW 0,00 h 0,0 UV-I 0 W/m 7,4 C 9,7 C 4,1 km/h (1 Bft)
16.11.2015 05:00 23,1 C 9,6 C 58 % 85 % 1016,1 hPa 0,0 l/m 2,1 km/h (1 Bft) W-SW 0,00 h 0,0 UV-I 0 W/m 7,2 C 9,6 C 6,1 km/h (2 Bft)
16.11.2015 06:00 23,1 C 9,1 C 57 % 86 % 1016,2 hPa 0,0 l/m 1,1 km/h (1 Bft) S 0,00 h 0,0 UV-I 0 W/m 6,8 C 9,1 C 3,5 km/h (1 Bft)
16.11.2015 07:00 23,1 C 8,3 C 57 % 89 % 1016,4 hPa 0,0 l/m 1,9 km/h (1 Bft) S 0,00 h 0,0 UV-I 16 W/m 6,6 C 8,3 C 4,9 km/h (1 Bft)
16.11.2015 08:00 23,4 C 8,5 C 58 % 87 % 1016,6 hPa 0,0 l/m 3,1 km/h (1 Bft) S 0,00 h 0,0 UV-I 95 W/m 6,5 C 8,5 C 6,8 km/h (2 Bft)
16.11.2015 09:00 23,5 C 9,9 C 58 % 79 % 1016,7 hPa 0,0 l/m 4,1 km/h (1 Bft) S 1,00 h 0,6 UV-I 222 W/m 6,5 C 9,7 C 8,3 km/h (2 Bft)
16.11.2015 10:00 23,6 C 11,2 C 58 % 70 % 1016,9 hPa 0,0 l/m 4,9 km/h (1 Bft) SW 1,00 h 1,0 UV-I 319 W/m 5,9 C 10,9 C 9,8 km/h (2 Bft)
16.11.2015 11:00 23,6 C 12,4 C 58 % 62 % 1016,3 hPa 0,0 l/m 5,2 km/h (1 Bft) SW 1,00 h 1,2 UV-I 357 W/m 5,2 C 12,2 C 11,0 km/h (2 Bft)
16.11.2015 12:00 23,6 C 13,8 C 57 % 55 % 1015,5 hPa 0,0 l/m 4,3 km/h (1 Bft) S 1,00 h 1,2 UV-I 354 W/m 4,9 C 13,5 C 9,9 km/h (2 Bft)
16.11.2015 13:00 23,8 C 14,4 C 52 % 43 % 1015,3 hPa 0,0 l/m 7,1 km/h (2 Bft) W-SW 1,00 h 0,9 UV-I 300 W/m 1,8 C 13,5 C 15,5 km/h (3 Bft)
16.11.2015 14:00 24,0 C 14,3 C 48 % 43 % 1014,9 hPa 0,0 l/m 9,8 km/h (2 Bft) W-SW 0,80 h 0,6 UV-I 192 W/m 1,9 C 12,4 C 18,6 km/h (3 Bft)
16.11.2015 15:00 24,0 C 13,5 C 48 % 47 % 1015,1 hPa 0,0 l/m 3,5 km/h (1 Bft) W-SW 0,00 h 0,0 UV-I 63 W/m 2,3 C 13,1 C 7,7 km/h (2 Bft)
16.11.2015 16:00 23,8 C 12,0 C 49 % 51 % 1015,2 hPa 0,0 l/m 0,5 km/h (0 Bft) W-SW 0,00 h 0,0 UV-I 11 W/m 2,3 C 12,0 C 2,4 km/h (1 Bft)
16.11.2015 17:00 24,0 C 10,5 C 52 % 57 % 1015,2 hPa 0,0 l/m 0,2 km/h (0 Bft) W 0,00 h 0,0 UV-I 0 W/m 2,5 C 10,5 C 1,0 km/h (0 Bft)
16.11.2015 18:00 24,1 C 8,7 C 54 % 66 % 1015,4 hPa 0,0 l/m 0,0 km/h (0 Bft) N 0,00 h 0,0 UV-I 0 W/m 2,7 C 8,7 C 0,0 km/h (0 Bft)
16.11.2015 19:00 24,2 C 7,7 C 54 % 75 % 1015,6 hPa 0,0 l/m 0,0 km/h (0 Bft) S 0,00 h 0,0 UV-I 0 W/m 3,5 C 7,7 C 0,2 km/h (0 Bft)
16.11.2015 20:00 24,4 C 7,2 C 54 % 79 % 1015,6 hPa 0,0 l/m 0,1 km/h (0 Bft) W 0,00 h 0,0 UV-I 0 W/m 3,8 C 7,2 C 0,5 km/h (0 Bft)
16.11.2015 21:00 24,3 C 7,8 C 54 % 82 % 1016,0 hPa 0,0 l/m 2,1 km/h (1 Bft) W-SW 0,00 h 0,0 UV-I 0 W/m 4,9 C 7,8 C 6,0 km/h (2 Bft)
16.11.2015 22:00 23,9 C 7,7 C 55 % 83 % 1016,2 hPa 0,0 l/m 2,0 km/h (1 Bft) W 0,00 h 0,0 UV-I 0 W/m 5,0 C 7,6 C 5,8 km/h (1 Bft)
16.11.2015 23:00 23,7 C 7,5 C 55 % 87 % 1016,4 hPa 0,0 l/m 1,8 km/h (1 Bft) W-SW 0,00 h 0,0 UV-I 0 W/m 5,4 C 7,5 C 5,3 km/h (1 Bft)
17.11.2015 00:00 23,5 C 7,2 C 55 % 90 % 1016,6 hPa 0,0 l/m 0,7 km/h (0 Bft) SW 0,00 h 0,0 UV-I 0 W/m 5,6 C 7,2 C 3,0 km/h (1 Bft)
17.11.2015 01:00 23,4 C 7,0 C 55 % 92 % 1016,3 hPa 0,0 l/m 1,4 km/h (1 Bft) W-SW 0,00 h 0,0 UV-I 0 W/m 5,9 C 7,0 C 4,7 km/h (1 Bft)
17.11.2015 02:00 23,3 C 7,3 C 55 % 93 % 1016,0 hPa 0,0 l/m 2,8 km/h (1 Bft) SW 0,00 h 0,0 UV-I 0 W/m 6,2 C 7,2 C 6,9 km/h (2 Bft)
17.11.2015 03:00 23,2 C 7,6 C 55 % 92 % 1015,3 hPa 0,0 l/m 5,0 km/h (1 Bft) S 0,00 h 0,0 UV-I 0 W/m 6,4 C 7,2 C 10,0 km/h (2 Bft)
17.11.2015 04:00 23,2 C 7,9 C 54 % 92 % 1015,2 hPa 0,4 l/m 4,0 km/h (1 Bft) SW 0,00 h 0,0 UV-I 0 W/m 6,7 C 7,9 C 8,8 km/h (2 Bft)
17.11.2015 05:00 23,1 C 7,8 C 54 % 95 % 1014,9 hPa 0,2 l/m 5,9 km/h (2 Bft) S 0,00 h 0,0 UV-I 0 W/m 7,0 C 7,0 C 11,2 km/h (2 Bft)
17.11.2015 06:00 23,1 C 7,9 C 55 % 95 % 1014,2 hPa 0,0 l/m 4,9 km/h (1 Bft) S 0,00 h 0,0 UV-I 0 W/m 7,2 C 7,5 C 9,9 km/h (2 Bft)
17.11.2015 07:00 23,2 C 8,1 C 55 % 96 % 1013,8 hPa 0,8 l/m 3,7 km/h (1 Bft) SW 0,00 h 0,0 UV-I 7 W/m 7,5 C 7,9 C 9,1 km/h (2 Bft)
17.11.2015 08:00 23,6 C 8,3 C 56 % 96 % 1013,8 hPa 0,6 l/m 6,5 km/h (2 Bft) S 0,00 h 0,0 UV-I 14 W/m 7,6 C 7,4 C 12,6 km/h (3 Bft)
17.11.2015 09:00 23,8 C 8,2 C 56 % 95 % 1013,5 hPa 0,0 l/m 5,0 km/h (1 Bft) SW 0,00 h 0,0 UV-I 14 W/m 7,5 C 7,7 C 11,4 km/h (2 Bft)
17.11.2015 10:00 23,8 C 8,3 C 56 % 96 % 1013,9 hPa 0,2 l/m 4,2 km/h (1 Bft) S-SW 0,00 h 0,0 UV-I 19 W/m 7,7 C 8,0 C 10,4 km/h (2 Bft)
17.11.2015 11:00 23,8 C 8,5 C 55 % 96 % 1013,4 hPa 1,0 l/m 4,7 km/h (1 Bft) S 0,00 h 0,0 UV-I 39 W/m 7,9 C 8,1 C 10,5 km/h (2 Bft)
17.11.2015 12:00 23,7 C 8,8 C 55 % 96 % 1013,1 hPa 0,8 l/m 5,7 km/h (1 Bft) S 0,00 h 0,0 UV-I 36 W/m 8,2 C 8,2 C 13,1 km/h (3 Bft)
17.11.2015 13:00 23,5 C 9,4 C 53 % 96 % 1012,9 hPa 0,6 l/m 5,0 km/h (1 Bft) SW 0,00 h 0,0 UV-I 27 W/m 8,8 C 8,9 C 12,5 km/h (3 Bft)
17.11.2015 14:00 23,3 C 9,7 C 51 % 96 % 1012,8 hPa 0,6 l/m 4,6 km/h (1 Bft) SW 0,00 h 0,0 UV-I 20 W/m 9,1 C 9,4 C 11,8 km/h (2 Bft)
17.11.2015 15:00 23,3 C 10,0 C 52 % 96 % 1012,8 hPa 0,6 l/m 4,5 km/h (1 Bft) SW 0,00 h 0,0 UV-I 10 W/m 9,4 C 9,8 C 12,7 km/h (3 Bft)
17.11.2015 16:00 23,7 C 10,2 C 54 % 96 % 1012,8 hPa 0,4 l/m 6,2 km/h (2 Bft) SW 0,00 h 0,0 UV-I 0 W/m 9,7 C 9,6 C 14,3 km/h (3 Bft)
17.11.2015 17:00 23,9 C 10,6 C 55 % 96 % 1012,7 hPa 0,6 l/m 5,1 km/h (1 Bft) SW 0,00 h 0,0 UV-I 0 W/m 10,0 C 10,1 C 11,8 km/h (2 Bft)
17.11.2015 18:00 23,8 C 11,1 C 56 % 96 % 1012,8 hPa 0,4 l/m 9,0 km/h (2 Bft) W-SW 0,00 h 0,0 UV-I 0 W/m 10,5 C 9,2 C 18,9 km/h (3 Bft)
17.11.2015 19:00 24,1 C 11,4 C 57 % 93 % 1012,9 hPa 0,2 l/m 15,6 km/h (3 Bft) W-SW 0,00 h 0,0 UV-I 0 W/m 10,4 C 6,8 C 27,2 km/h (4 Bft)
17.11.2015 20:00 24,2 C 11,3 C 56 % 93 % 1012,8 hPa 0,0 l/m 12,7 km/h (3 Bft) W-SW 0,00 h 0,0 UV-I 0 W/m 10,3 C 7,8 C 21,3 km/h (4 Bft)
17.11.2015 21:00 24,1 C 11,1 C 56 % 95 % 1012,1 hPa 0,2 l/m 10,4 km/h (2 Bft) SW 0,00 h 0,0 UV-I 0 W/m 10,4 C 8,7 C 18,1 km/h (3 Bft)
17.11.2015 22:00 23,8 C 11,3 C 57 % 93 % 1011,6 hPa 0,0 l/m 11,6 km/h (2 Bft) S-SW 0,00 h 0,0 UV-I 0 W/m 10,3 C 8,3 C 19,3 km/h (3 Bft)
17.11.2015 23:00 23,5 C 11,3 C 57 % 93 % 1010,9 hPa 0,2 l/m 8,2 km/h (2 Bft) S 0,00 h 0,0 UV-I 0 W/m 10,1 C 9,7 C 14,4 km/h (3 Bft)
18.11.2015 00:00 23,4 C 11,1 C 56 % 95 % 1010,1 hPa 0,4 l/m 7,1 km/h (2 Bft) S 0,00 h 0,0 UV-I 0 W/m 10,3 C 9,9 C 14,1 km/h (3 Bft)
18.11.2015 01:00 23,3 C 11,3 C 56 % 96 % 1009,5 hPa 0,0 l/m 12,0 km/h (2 Bft) S-SW 0,00 h 0,0 UV-I 0 W/m 10,7 C 8,1 C 20,4 km/h (4 Bft)
18.11.2015 02:00 23,2 C 12,1 C 56 % 94 % 1009,3 hPa 0,4 l/m 13,1 km/h (3 Bft) SW 0,00 h 0,0 UV-I 0 W/m 11,1 C 8,6 C 23,7 km/h (4 Bft)
18.11.2015 03:00 23,1 C 13,0 C 56 % 85 % 1008,6 hPa 0,0 l/m 25,6 km/h (4 Bft) W-SW 0,00 h 0,0 UV-I 0 W/m 10,4 C 5,9 C 41,8 km/h (6 Bft)
18.11.2015 04:00 23,1 C 13,2 C 56 % 80 % 1008,3 hPa 0,0 l/m 28,9 km/h (5 Bft) W-SW 0,00 h 0,0 UV-I 0 W/m 9,8 C 5,4 C 43,5 km/h (6 Bft)
18.11.2015 05:00 23,0 C 13,3 C 56 % 76 % 1008,8 hPa 0,0 l/m 26,4 km/h (4 Bft) W-SW 0,00 h 0,0 UV-I 0 W/m 9,1 C 6,1 C 41,2 km/h (6 Bft)
18.11.2015 06:00 23,0 C 13,1 C 56 % 75 % 1009,9 hPa 0,0 l/m 19,2 km/h (3 Bft) W-SW 0,00 h 0,0 UV-I 0 W/m 8,7 C 7,7 C 30,0 km/h (5 Bft)
18.11.2015 07:00 23,0 C 12,7 C 56 % 74 % 1011,0 hPa 0,0 l/m 19,0 km/h (3 Bft) W 0,00 h 0,0 UV-I 0 W/m 8,3 C 7,3 C 30,8 km/h (5 Bft)
18.11.2015 08:00 23,0 C 12,4 C 56 % 69 % 1012,6 hPa 0,0 l/m 21,8 km/h (4 Bft) W 0,00 h 0,0 UV-I 35 W/m 6,9 C 6,2 C 34,9 km/h (5 Bft)
18.11.2015 09:00 23,3 C 12,3 C 56 % 64 % 1013,5 hPa 0,0 l/m 23,9 km/h (4 Bft) W 0,00 h 0,5 UV-I 56 W/m 5,6 C 5,3 C 38,0 km/h (5 Bft)
18.11.2015 10:00 23,4 C 12,1 C 56 % 66 % 1014,9 hPa 0,0 l/m 18,2 km/h (3 Bft) W-SW 0,05 h 0,6 UV-I 83 W/m 5,8 C 6,7 C 30,0 km/h (5 Bft)
18.11.2015 11:00 23,3 C 12,3 C 55 % 64 % 1016,0 hPa 0,0 l/m 18,0 km/h (3 Bft) W 0,00 h 0,5 UV-I 71 W/m 5,8 C 7,0 C 28,6 km/h (4 Bft)
18.11.2015 12:00 23,4 C 12,1 C 54 % 64 % 1016,5 hPa 0,0 l/m 15,3 km/h (3 Bft) W-SW 0,00 h 0,5 UV-I 52 W/m 5,6 C 7,8 C 24,7 km/h (4 Bft)
18.11.2015 13:00 23,7 C 12,1 C 53 % 64 % 1017,0 hPa 0,0 l/m 17,2 km/h (3 Bft) W-SW 0,03 h 0,5 UV-I 76 W/m 5,6 C 7,0 C 27,4 km/h (4 Bft)
18.11.2015 14:00 23,5 C 11,9 C 52 % 63 % 1017,2 hPa 0,0 l/m 18,0 km/h (3 Bft) W-SW 0,08 h 0,6 UV-I 76 W/m 5,1 C 6,5 C 29,3 km/h (5 Bft)
18.11.2015 15:00 23,8 C 11,5 C 53 % 67 % 1017,1 hPa 0,0 l/m 17,0 km/h (3 Bft) W 0,00 h 0,0 UV-I 38 W/m 5,5 C 6,3 C 26,9 km/h (4 Bft)
18.11.2015 16:00 23,4 C 10,9 C 49 % 70 % 1017,2 hPa 0,0 l/m 13,3 km/h (3 Bft) W-SW 0,00 h 0,0 UV-I 8 W/m 5,6 C 7,0 C 21,3 km/h (4 Bft)
18.11.2015 17:00 23,7 C 10,6 C 52 % 72 % 1017,5 hPa 0,0 l/m 11,2 km/h (2 Bft) W-SW 0,00 h 0,0 UV-I 0 W/m 5,6 C 7,7 C 17,5 km/h (3 Bft)
18.11.2015 18:00 23,8 C 10,3 C 52 % 72 % 1017,3 hPa 0,0 l/m 10,6 km/h (2 Bft) W-SW 0,00 h 0,0 UV-I 0 W/m 5,6 C 7,7 C 18,0 km/h (3 Bft)
18.11.2015 19:00 24,1 C 10,0 C 54 % 73 % 1016,9 hPa 0,0 l/m 15,1 km/h (3 Bft) W-SW 0,00 h 0,0 UV-I 0 W/m 5,5 C 5,3 C 24,1 km/h (4 Bft)
18.11.2015 20:00 24,0 C 9,5 C 55 % 76 % 1016,5 hPa 0,0 l/m 10,5 km/h (2 Bft) W-SW 0,00 h 0,0 UV-I 0 W/m 5,6 C 6,9 C 17,3 km/h (3 Bft)
18.11.2015 21:00 23,9 C 9,1 C 53 % 79 % 1016,7 hPa 0,0 l/m 8,7 km/h (2 Bft) W-SW 0,00 h 0,0 UV-I 0 W/m 5,7 C 7,1 C 14,1 km/h (3 Bft)
18.11.2015 22:00 23,9 C 8,3 C 54 % 83 % 1016,5 hPa 0,0 l/m 6,2 km/h (2 Bft) S 0,00 h 0,0 UV-I 0 W/m 5,6 C 7,7 C 10,8 km/h (2 Bft)
18.11.2015 23:00 23,6 C 8,2 C 54 % 85 % 1016,0 hPa 0,0 l/m 6,4 km/h (2 Bft) SW 0,00 h 0,0 UV-I 0 W/m 5,8 C 6,9 C 11,1 km/h (2 Bft)
19.11.2015 00:00 23,4 C 9,0 C 54 % 82 % 1015,9 hPa 0,0 l/m 11,7 km/h (2 Bft) SW 0,00 h 0,0 UV-I 0 W/m 6,0 C 5,7 C 19,7 km/h (3 Bft)
19.11.2015 01:00 23,3 C 9,6 C 53 % 80 % 1015,6 hPa 0,0 l/m 11,2 km/h (2 Bft) W-SW 0,00 h 0,0 UV-I 0 W/m 6,2 C 6,6 C 18,7 km/h (3 Bft)
19.11.2015 02:00 23,2 C 9,7 C 53 % 79 % 1015,5 hPa 0,0 l/m 10,7 km/h (2 Bft) S-SW 0,00 h 0,0 UV-I 0 W/m 6,3 C 7,0 C 17,6 km/h (3 Bft)
19.11.2015 03:00 23,1 C 9,8 C 53 % 79 % 1015,1 hPa 0,0 l/m 9,1 km/h (2 Bft) S 0,00 h 0,0 UV-I 0 W/m 6,3 C 7,9 C 14,6 km/h (3 Bft)
19.11.2015 04:00 23,0 C 9,9 C 53 % 79 % 1014,3 hPa 0,0 l/m 9,8 km/h (2 Bft) S 0,00 h 0,0 UV-I 0 W/m 6,4 C 7,7 C 15,0 km/h (3 Bft)
19.11.2015 05:00 23,0 C 10,2 C 53 % 79 % 1013,9 hPa 0,0 l/m 10,0 km/h (2 Bft) S-SW 0,00 h 0,0 UV-I 0 W/m 6,8 C 7,8 C 18,1 km/h (3 Bft)
20.11.2015 14:00 23,2 C 4,6 C 52 % 94 % 1003,1 hPa 0,6 l/m 0,5 km/h (0 Bft) W-SW 0,00 h 0,0 UV-I 19 W/m 3,7 C 4,6 C 2,3 km/h (1 Bft)
20.11.2015 15:00 23,7 C 4,3 C 53 % 94 % 1001,9 hPa 0,6 l/m 0,3 km/h (0 Bft) SW 0,00 h 0,0 UV-I 7 W/m 3,4 C 4,3 C 1,3 km/h (1 Bft)
20.11.2015 16:00 23,9 C 3,9 C 53 % 95 % 1001,0 hPa 0,8 l/m 0,0 km/h (0 Bft) N 0,00 h 0,0 UV-I 0 W/m 3,2 C 3,9 C 0,1 km/h (0 Bft)
20.11.2015 17:00 24,2 C 3,7 C 55 % 95 % 1000,7 hPa 1,2 l/m 0,6 km/h (0 Bft) W-NW 0,00 h 0,0 UV-I 0 W/m 3,0 C 3,6 C 1,7 km/h (1 Bft)
20.11.2015 18:00 24,3 C 3,3 C 53 % 95 % 999,8 hPa 0,4 l/m 0,0 km/h (0 Bft) N 0,00 h 0,0 UV-I 0 W/m 2,6 C 3,3 C 0,1 km/h (0 Bft)
20.11.2015 19:00 24,5 C 3,1 C 51 % 95 % 999,2 hPa 0,2 l/m 0,0 km/h (0 Bft) N 0,00 h 0,0 UV-I 0 W/m 2,4 C 3,1 C 0,0 km/h (0 Bft)
20.11.2015 20:00 24,0 C 3,0 C 48 % 96 % 998,9 hPa 0,2 l/m 0,1 km/h (0 Bft) W-SW 0,00 h 0,0 UV-I 0 W/m 2,4 C 3,0 C 0,6 km/h (0 Bft)
20.11.2015 21:00 24,2 C 2,7 C 49 % 95 % 999,0 hPa 0,4 l/m 1,3 km/h (1 Bft) W-SW 0,00 h 0,0 UV-I 0 W/m 2,0 C 2,7 C 3,6 km/h (1 Bft)
20.11.2015 22:00 23,6 C 2,5 C 47 % 95 % 999,0 hPa 0,0 l/m 1,0 km/h (0 Bft) SW 0,00 h 0,0 UV-I 0 W/m 1,8 C 2,5 C 3,4 km/h (1 Bft)
20.11.2015 23:00 23,4 C 2,2 C 47 % 95 % 999,1 hPa 0,2 l/m 1,2 km/h (1 Bft) W-SW 0,00 h 0,0 UV-I 0 W/m 1,5 C 2,2 C 3,6 km/h (1 Bft)
21.11.2015 00:00 23,3 C 2,1 C 48 % 96 % 999,2 hPa 0,0 l/m 2,3 km/h (1 Bft) W-SW 0,00 h 0,0 UV-I 0 W/m 1,5 C 2,1 C 6,3 km/h (2 Bft)
21.11.2015 01:00 23,2 C 2,1 C 49 % 96 % 999,5 hPa 0,0 l/m 2,4 km/h (1 Bft) W-SW 0,00 h 0,0 UV-I 0 W/m 1,5 C 2,0 C 6,3 km/h (2 Bft)
21.11.2015 02:00 23,1 C 2,0 C 49 % 96 % 999,3 hPa 0,2 l/m 2,9 km/h (1 Bft) W-SW 0,00 h 0,0 UV-I 0 W/m 1,4 C 2,0 C 7,5 km/h (2 Bft)
21.11.2015 03:00 22,9 C 1,9 C 50 % 96 % 998,4 hPa 0,0 l/m 1,3 km/h (1 Bft) W-SW 0,00 h 0,0 UV-I 0 W/m 1,3 C 1,9 C 4,4 km/h (1 Bft)
21.11.2015 04:00 22,3 C 1,8 C 51 % 96 % 997,9 hPa 0,0 l/m 1,3 km/h (1 Bft) W-SW 0,00 h 0,0 UV-I 0 W/m 1,2 C 1,7 C 3,5 km/h (1 Bft)
21.11.2015 05:00 22,2 C 1,5 C 52 % 95 % 997,6 hPa 0,0 l/m 2,0 km/h (1 Bft) SW 0,00 h 0,0 UV-I 0 W/m 0,7 C 1,4 C 5,5 km/h (1 Bft)
21.11.2015 06:00 22,1 C 1,2 C 52 % 96 % 997,8 hPa 0,0 l/m 1,4 km/h (1 Bft) SW 0,00 h 0,0 UV-I 0 W/m 0,6 C 1,2 C 4,1 km/h (1 Bft)
21.11.2015 07:00 22,1 C 1,0 C 52 % 95 % 997,6 hPa 0,0 l/m 0,1 km/h (0 Bft) S-SW 0,00 h 0,0 UV-I 8 W/m 0,4 C 1,0 C 0,6 km/h (0 Bft)
21.11.2015 08:00 22,4 C 1,0 C 53 % 96 % 997,7 hPa 0,0 l/m 1,7 km/h (1 Bft) S 0,00 h 0,0 UV-I 31 W/m 0,4 C 0,9 C 3,0 km/h (1 Bft)
21.11.2015 09:00 23,1 C 1,4 C 51 % 96 % 997,9 hPa 0,0 l/m 1,4 km/h (1 Bft) S 0,00 h 0,0 UV-I 53 W/m 0,8 C 1,3 C 4,1 km/h (1 Bft)
21.11.2015 10:00 23,0 C 2,3 C 49 % 94 % 997,6 hPa 0,0 l/m 0,3 km/h (0 Bft) W-SW 0,00 h 0,5 UV-I 75 W/m 1,4 C 2,3 C 1,5 km/h (1 Bft)
21.11.2015 11:00 22,8 C 2,8 C 47 % 91 % 997,0 hPa 0,0 l/m 0,6 km/h (0 Bft) W-SW 0,17 h 0,6 UV-I 107 W/m 1,4 C 2,8 C 2,2 km/h (1 Bft)
21.11.2015 12:00 22,8 C 3,0 C 49 % 87 % 996,5 hPa 0,0 l/m 1,7 km/h (1 Bft) W-SW 0,03 h 0,6 UV-I 97 W/m 1,0 C 3,0 C 4,9 km/h (1 Bft)
21.11.2015 13:00 22,8 C 2,9 C 48 % 87 % 996,6 hPa 0,0 l/m 1,9 km/h (1 Bft) W-SW 0,00 h 0,5 UV-I 39 W/m 1,0 C 2,9 C 4,9 km/h (1 Bft)
21.11.2015 14:00 22,7 C 2,8 C 45 % 88 % 996,5 hPa 0,0 l/m 1,6 km/h (1 Bft) W-SW 0,00 h 0,5 UV-I 50 W/m 1,0 C 2,8 C 4,5 km/h (1 Bft)
21.11.2015 15:00 22,6 C 2,8 C 43 % 89 % 996,7 hPa 0,0 l/m 0,3 km/h (0 Bft) SW 0,00 h 0,0 UV-I 19 W/m 1,1 C 2,8 C 1,6 km/h (1 Bft)
21.11.2015 16:00 22,8 C 2,3 C 44 % 90 % 996,8 hPa 0,0 l/m 0,0 km/h (0 Bft) N 0,00 h 0,0 UV-I 5 W/m 0,7 C 2,3 C 0,0 km/h (0 Bft)
21.11.2015 17:00 22,7 C 1,3 C 42 % 91 % 997,1 hPa 0,0 l/m 0,0 km/h (0 Bft) N 0,00 h 0,0 UV-I 0 W/m 0,0 C 1,3 C 0,0 km/h (0 Bft)
21.11.2015 18:00 22,4 C 0,6 C 41 % 93 % 997,0 hPa 0,0 l/m 0,0 km/h (0 Bft) N 0,00 h 0,0 UV-I 0 W/m -0,4 C 0,6 C 0,0 km/h (0 Bft)
21.11.2015 19:00 22,7 C 0,0 C 44 % 93 % 997,2 hPa 0,0 l/m 0,0 km/h (0 Bft) N 0,00 h 0,0 UV-I 0 W/m -0,9 C 0,0 C 0,0 km/h (0 Bft)
21.11.2015 20:00 22,8 C -0,2 C 45 % 95 % 997,5 hPa 0,0 l/m 0,0 km/h (0 Bft) N 0,00 h 0,0 UV-I 0 W/m -0,9 C -0,2 C 0,0 km/h (0 Bft)
21.11.2015 21:00 23,0 C -0,2 C 47 % 95 % 997,9 hPa 0,0 l/m 0,0 km/h (0 Bft) N 0,00 h 0,0 UV-I 0 W/m -0,9 C -0,2 C 0,0 km/h (0 Bft)
21.11.2015 22:00 23,0 C -0,4 C 45 % 95 % 998,0 hPa 0,0 l/m 0,0 km/h (0 Bft) N 0,00 h 0,0 UV-I 0 W/m -1,1 C -0,4 C 0,0 km/h (0 Bft)
21.11.2015 23:00 23,1 C -0,1 C 44 % 96 % 998,2 hPa 0,0 l/m 0,0 km/h (0 Bft) N 0,00 h 0,0 UV-I 0 W/m -0,6 C -0,1 C 0,0 km/h (0 Bft)
22.11.2015 00:00 22,8 C 0,3 C 45 % 96 % 998,2 hPa 0,0 l/m 0,0 km/h (0 Bft) N 0,00 h 0,0 UV-I 0 W/m -0,3 C 0,3 C 0,0 km/h (0 Bft)
22.11.2015 01:00 22,6 C 0,5 C 45 % 96 % 998,2 hPa 0,0 l/m 0,0 km/h (0 Bft) N 0,00 h 0,0 UV-I 0 W/m -0,1 C 0,5 C 0,0 km/h (0 Bft)
22.11.2015 02:00 22,5 C 0,5 C 46 % 96 % 998,4 hPa 0,0 l/m 0,0 km/h (0 Bft) N 0,00 h 0,0 UV-I 0 W/m -0,1 C 0,5 C 0,0 km/h (0 Bft)
22.11.2015 03:00 22,4 C 0,5 C 46 % 97 % 998,6 hPa 0,0 l/m 0,0 km/h (0 Bft) N 0,00 h 0,0 UV-I 0 W/m -0,0 C 0,5 C 0,0 km/h (0 Bft)
22.11.2015 04:00 22,7 C 0,3 C 46 % 96 % 998,8 hPa 0,0 l/m 0,0 km/h (0 Bft) N 0,00 h 0,0 UV-I 0 W/m -0,2 C 0,3 C 0,0 km/h (0 Bft)
22.11.2015 05:00 22,8 C 0,2 C 46 % 97 % 999,4 hPa 0,0 l/m 0,0 km/h (0 Bft) N 0,00 h 0,0 UV-I 0 W/m -0,3 C 0,2 C 0,0 km/h (0 Bft)
22.11.2015 06:00 22,9 C 0,0 C 47 % 97 % 999,8 hPa 0,0 l/m 0,0 km/h (0 Bft) N 0,00 h 0,0 UV-I 0 W/m -0,4 C 0,0 C 0,0 km/h (0 Bft)
22.11.2015 07:00 22,9 C 0,1 C 47 % 97 % 1000,8 hPa 0,0 l/m 0,0 km/h (0 Bft) N 0,00 h 0,0 UV-I 0 W/m -0,3 C 0,1 C 0,0 km/h (0 Bft)
22.11.2015 08:00 22,9 C 0,2 C 48 % 97 % 1002,0 hPa 0,0 l/m 0,0 km/h (0 Bft) N 0,00 h 0,0 UV-I 8 W/m -0,2 C 0,2 C 0,1 km/h (0 Bft)
22.11.2015 09:00 22,9 C 0,8 C 48 % 93 % 1002,8 hPa 0,2 l/m 1,6 km/h (1 Bft) NW 0,75 h 0,5 UV-I 189 W/m -0,2 C 0,8 C 3,7 km/h (1 Bft)
22.11.2015 10:00 23,2 C 1,3 C 49 % 88 % 1003,5 hPa 0,2 l/m 2,8 km/h (1 Bft) NW 0,88 h 0,7 UV-I 236 W/m -0,5 C 1,2 C 6,0 km/h (2 Bft)
22.11.2015 11:00 23,1 C 1,6 C 47 % 86 % 1004,0 hPa 0,0 l/m 2,2 km/h (1 Bft) NW 0,53 h 0,8 UV-I 171 W/m -0,5 C 1,6 C 5,3 km/h (1 Bft)
22.11.2015 12:00 23,0 C 1,2 C 48 % 87 % 1004,6 hPa 1,4 l/m 2,5 km/h (1 Bft) NW 0,07 h 0,7 UV-I 101 W/m -0,7 C 1,1 C 6,0 km/h (2 Bft)
22.11.2015 13:00 23,0 C 0,9 C 49 % 86 % 1005,4 hPa 1,0 l/m 3,8 km/h (1 Bft) NW 0,00 h 0,5 UV-I 81 W/m -1,2 C 0,3 C 8,3 km/h (2 Bft)
22.11.2015 14:00 22,9 C 0,8 C 47 % 86 % 1006,0 hPa 0,4 l/m 1,5 km/h (1 Bft) W-SW 0,00 h 0,0 UV-I 48 W/m -1,3 C 0,8 C 4,3 km/h (1 Bft)
22.11.2015 15:00 23,5 C 0,7 C 48 % 88 % 1006,5 hPa 0,2 l/m 2,2 km/h (1 Bft) W-SW 0,00 h 0,0 UV-I 29 W/m -1,0 C 0,6 C 5,8 km/h (1 Bft)
22.11.2015 16:00 23,7 C 0,3 C 50 % 89 % 1007,1 hPa 0,0 l/m 5,1 km/h (1 Bft) W-SW 0,00 h 0,0 UV-I 7 W/m -1,3 C -0,3 C 10,1 km/h (2 Bft)
22.11.2015 17:00 23,8 C 0,0 C 51 % 90 % 1007,8 hPa 0,0 l/m 6,0 km/h (2 Bft) W-SW 0,00 h 0,0 UV-I 0 W/m -1,5 C -0,6 C 11,0 km/h (2 Bft)
22.11.2015 18:00 23,7 C -0,5 C 52 % 92 % 1008,6 hPa 0,0 l/m 4,2 km/h (1 Bft) SW 0,00 h 0,0 UV-I 0 W/m -1,5 C -0,6 C 8,5 km/h (2 Bft)
22.11.2015 19:00 23,9 C -0,8 C 50 % 92 % 1009,3 hPa 0,0 l/m 4,1 km/h (1 Bft) S-SW 0,00 h 0,0 UV-I 0 W/m -1,8 C -0,9 C 7,8 km/h (2 Bft)
22.11.2015 20:00 23,9 C -0,7 C 50 % 93 % 1010,0 hPa 0,0 l/m 2,9 km/h (1 Bft) S 0,00 h 0,0 UV-I 0 W/m -1,7 C -0,8 C 5,7 km/h (1 Bft)
22.11.2015 21:00 23,7 C -0,8 C 48 % 93 % 1010,6 hPa 0,0 l/m 1,0 km/h (0 Bft) S 0,00 h 0,0 UV-I 0 W/m -1,7 C -0,8 C 2,1 km/h (1 Bft)
22.11.2015 22:00 23,8 C -0,6 C 48 % 94 % 1011,0 hPa 0,2 l/m 4,9 km/h (1 Bft) S 0,00 h 0,0 UV-I 0 W/m -1,4 C -0,9 C 8,8 km/h (2 Bft)
22.11.2015 23:00 23,3 C -0,5 C 48 % 94 % 1011,7 hPa 0,2 l/m 4,5 km/h (1 Bft) W-SW 0,00 h 0,0 UV-I 0 W/m -1,3 C -0,9 C 8,6 km/h (2 Bft)
Min-Datum _ 21.11.15 22.11.15 21.11.15 16.11.15 21.11.15 - 16.11.15 - - - - 22.11.15 22.11.15 16.11.15
_ Min-Zeit 05:30 19:01 18:19 13:23 13:53 - 01:13 - - - - 19:01 22:47 03:38
Minimum _ 22,1 C -0,8 C 36 % 41 % 996,3 hPa - 0,0 km/h (0 Bft) - - - - -1,9 C -5,1 C 0,0 km/h (0 Bft)
Max-Datum _ 20.11.15 16.11.15 16.11.15 17.11.15 18.11.15 22.11.15 18.11.15 - 16.11.15 16.11.15 22.11.15 18.11.15 16.11.15 18.11.15
_ Max-Zeit 19:32 12:50 10:44 16:31 17:31 12:17 04:33 - 10:04 11:17 11:21 02:22 12:51 04:43
Maximum _ 24,6 C 14,6 C 59 % 97 % 1017,7 hPa 1,4 l/m 41,8 km/h
W-SW (6 Bft)
- 0,03 h 1,2 UV-I 457 W/m 11,3 C 14,6 C 69,2 km/h
W-SW (8 Bft)
Durchschnitt _ 23,4 C 6,4 C 52 % 86 % 1008,7 hPa #17,2 l/m 5,6 km/h (1 Bft) W-SW #8:24 h 0,7 UV-I 81 W/m 4,1 C 5,2 C 10,3 km/h (2 Bft)